Location: Az?znagar
(16.8373°N, 80.5091°E)
Time: 02:19:32
(UTC+00:00)

Nadezhda 4 Rocket - Pass Details

Date: 03 July 2022
Orbit: 949 x 992 km, 82.9° (Epoch: 09 August)

Event Time Altitude Azimuth Distance (km) Brightness Sun altitude
Rises 22:57:38 0° 157° (SSE) 3,666 6.9 -16.0°
Reaches altitude 10° 23:00:32 10° 145° (SE) 2,713 6.4 -15.4°
Maximum altitude 23:05:37 27° 90° (E) 1,768 6.1 -14.4°
Drops below altitude 10° 23:10:39 10° 35° (NE) 2,693 7.4 -13.3°
Sets 23:13:30 0° 23° (NNE) 3,634 7.9 -12.7°
